Regional Weather Roundup
Issued by NWS

Home | Current Version | Previous Version | Text Only | Print | Product List | Glossary On
Versions: 1 2 3 4 5 6 7 8 9 10 11 12 13 14 15 16 17 18 19 20 21 22 23 24 25 26 27
000
ASUS45 KTFX 200510
RWRMT
MONTANA REGIONAL WEATHER ROUNDUP
NATIONAL WEATHER SERVICE GREAT FALLS MT
1000 PM MST SUN FEB 19 2017

NOTE: "FAIR" INDICATES FEW OR NO CLOUDS BELOW 12000 FEET WITH NO
SIGNIFICANT WEATHER AND/OR OBSTRUCTIONS TO VISIBILITY.

MTZ001>007-043-200600-
WEST OF THE DIVIDE

CITY           SKY/WX    TMP DP  RH WIND       PRES   REMARKS
KALISPELL      PTCLDY    35  29  78 SE13      29.68R WCI  26
MISSOULA       LGT SNOW  34  33  96 E10       29.74R FOG     WCI  26
BUTTE          CLOUDY    34  19  54 SW7       29.72R WCI  28
MULLAN PASS    PTCLDY    23  22  96 VRB6      29.63R WCI  16
ANACONDA         N/A     30  19  64 S10       29.70R WCI  21
DEER LODGE       N/A     34  25  69 CALM      29.72R
EUREKA           N/A     37  30  75 SE12      29.65R WCI  30
HAMILTON         N/A     36  27  69 S9        29.71R WCI  29
LIBBY            N/A     30  30 100 CALM      29.67R VSB 1/2
PLAINS           N/A     31  25  78 CALM      29.74R VSB 0
$$

MTZ008-052>055-200600-
SOUTHWEST MONTANA

CITY           SKY/WX    TMP DP  RH WIND       PRES   REMARKS
BOZEMAN        CLOUDY    37  27  67 S10G24    29.71R WCI  30
DILLON         CLOUDY    32  20  61 S6        29.74R WCI  26
W YELLOWSTONE  CLOUDY    28  25  86 S10       29.82R WCI  19
ENNIS          CLEAR     32  25  74 S15       29.80R WCI  22
$$

MTZ009-010-012-014-046-048-049-054-200600-
EAST SLOPES AND CENTRAL MONTANA

CITY           SKY/WX    TMP DP  RH WIND       PRES   REMARKS
CUT BANK       CLOUDY    32  26  78 S9        29.58R WCI  24
GREAT FALLS    CLOUDY    33  30  88 SW12      29.62R WCI  24
MALMSTROM AFB  CLOUDY    37  32  82 SW7       29.64R WCI  31
HELENA         PTCLDY    34  28  79 CALM      29.67R
AUGUSTA        LGT RAIN  33  29  85 W17G31    29.61R WCI  22
BOWMANS CRNR     N/A     34  27  76 S10       29.61R WCI  26
CHOTEAU          N/A     37  28  70 W18G32    29.63R WCI  27
CONRAD           N/A     33  30  89 W7        29.66R WCI  27
POWER          LGT RAIN  36  30  79 SE5       29.60R
RAYNESFORD     FLURRIES  35  32  88 W9        29.64R WCI  28
ULM            MOCLDY    35  31  85 MISG      29.64R
$$

MTZ011-013-016-021-045-047-050-051-200600-
NORTH CENTRAL MONTANA

CITY           SKY/WX    TMP DP  RH WIND       PRES   REMARKS
HAVRE          CLEAR     30  27  88 NW3       29.58R
LEWISTOWN      PTCLDY    34  27  75 S6        29.63  WCI  29
N BAR RANCH      N/A     37  23  56 CALM      29.65R
CHINOOK          N/A     28  27  93 CALM      29.59R
DENTON         MOCLDY    38  27  65 S14G22    29.58R WCI  30
FORT BENTON      N/A    N/A N/A N/A MISG      29.63R
GEYSER         MOCLDY    39  25  57 SW16      29.60R WCI  30
GRASS RANGE    MOCLDY    34  29  80 SW9       29.59R WCI  27
JUDITH GAP     MOCLDY    36  25  64 W8        29.64R WCI  29
ROY              N/A     32  25  76 MISG      29.59R
STANFORD         N/A     34  26  71 SW15      29.62R WCI  25
WINIFRED       MOCLDY    38  27  63 SW10      29.60R WCI  32
$$

MTZ017>020-022>027-061-062-200600-
NORTHEAST MONTANA

CITY           SKY/WX    TMP DP  RH WIND       PRES   REMARKS
GLASGOW        CLOUDY    28  26  92 VRB5      29.59R FOG
JORDAN           N/A     35  31  85 CALM      29.59R
SIDNEY         LGT RAIN  34  32  92 W5        29.61R FOG
WOLF POINT     FOG       33  31  92 W8        29.61R VSB 1/4 WCI  26
PLENTYWOOD       N/A     34  34 100 CALM      29.58R VSB 1/2
POPLAR           N/A     34  32  93 SE3       29.60R VSB 0
SCOBEY           N/A     31  26  81 CALM      29.57R VSB 0
$$

MTZ028>42-056>058-200600-
SOUTHCENTRAL AND SOUTHEAST MONTANA

CITY           SKY/WX    TMP DP  RH WIND       PRES   REMARKS
BAKER          CLOUDY    42  34  73 NW7       29.59R
BILLINGS       MOCLDY    41  27  57 SW7       29.65R
LIVINGSTON     LGT SNOW  35  31  85 SW9       29.72R FOG     WCI  28
MILES CITY     CLOUDY    43  35  73 W5        29.61R
BIG TIMBER     PTCLDY    37  28  70 W18G25    29.71R WCI  27
EKALAKA          N/A     42  33  70 W6        29.61R
FORSYTH          N/A     43  36  75 CALM      29.62R
HARLOWTON      MOCLDY    38  26  61 W6        29.66R
LAUREL           N/A     36  19  50 W1        29.67R
$$

REGIONAL REPORTS...DAKOTAS

CITY           SKY/WX    TMP DP  RH WIND       PRES   REMARKS
WILLISTON      CLOUDY    33  30  88 CALM      29.59R FOG
MINOT          CLOUDY    32  31  96 CALM      29.53R FOG
DICKINSON      CLOUDY    39  35  86 N7        29.51S
BEACH            N/A    N/A N/A N/A MISG        N/A
CROSBY         CLOUDY    32  32 100 W7        29.59S FOG     WCI  26
TIOGA          FOG       32  32 100 W7        29.58R VSB 1/2 WCI  26
WATFORD CITY     N/A     32  32 100 NW8       29.58S WCI  25
BISMARCK       CLOUDY    38  35  89 CALM      29.53R
GRAND FORKS    MOCLDY    40  34  79 S14       29.60F
FARGO          CLOUDY    52  48  86 S21G32    29.62S
BUFFALO SD       N/A     46  36  68 NW15      29.48S
RAPID CITY     CLOUDY    57  35  43 W13       29.55F
$$

REGIONAL REPORTS...WYOMING/IDAHO/WASHINGTON

CITY           SKY/WX    TMP DP  RH WIND       PRES   REMARKS
GILLETTE       MOCLDY    43  33  68 W9        29.63R
SHERIDAN       CLOUDY    41  33  73 VRB5      29.65F
BUFFALO WY     CLOUDY    39  33  79 N10G23    29.67R
CODY           CLOUDY    40  16  37 VRB7      29.70F
YELLOWSTONE LA   N/A     23  20  88 VRB7      29.83R WCI  15
IDAHO FALLS    CLOUDY    35  29  78 W15       29.88R WCI  25
SALMON         CLOUDY    37  28  70 S18G24    29.77R WCI  27
BOISE          MOCLDY    41  34  76 SE12      29.78R
SPOKANE        PTCLDY    32  31  96 SE7       29.66R WCI  26
$$

REGIONAL REPORTS...ALBERTA

CITY           SKY/WX    TMP DP  RH WIND       PRES   REMARKS
EDMONTON       CLOUDY    32  30  93 NW3       29.51R
CALGARY        CLOUDY    32  27  80 VRB2      29.51R FOG
LETHBRIDGE     PTCLDY    34  27  75 SW13      29.54R WCI  25
MEDICINE HAT   CLEAR     34  27  75 SW8       29.54R WCI  27
WATERTON GATE    N/A     34  27  75 SW22G31     N/A  WCI  22
CARDSTON         N/A     36  27  69 W9          N/A  WCI  29
MILK RIVER       N/A     32  25  74 SW8         N/A  WCI  25
ONEFOUR          N/A     32  30  93 E5          N/A
$$

REGIONAL REPORTS...SASKATCHEWAN

CITY           SKY/WX    TMP DP  RH WIND       PRES   REMARKS
SWIFT CURRENT  MOCLDY    34  32  93 SW9       29.52S WCI  26
REGINA         CLOUDY    32  32 100 S3        29.57S FOG
SASKATOON      FLURRIES  34  32  93 SE13      29.55R WCI  25
CYPRESS HILLS    N/A     32  27  80 SW6         N/A  WCI  26
VAL MARIE        N/A     28  27  93 SW2         N/A
ASSINIBOIA       N/A     34  34 100 NW8         N/A  WCI  27
$$




USA.gov is the U.S. government's official web portal to all federal, state and local government web resources and services.